Other Public Products
Issued by NWS Grand Forks, ND

Home | Current Version | Previous Version | Text Only | Print | Product List | Glossary Off
Versions: 1 2 3 4 5 6 7 8 9 10 11 12 13 14 15 16 17 18 19 20 21 22 23 24 25 26 27 28 29 30 31 32 33 34 35 36 37 38 39 40 41 42 43 44 45 46 47 48 49 50

963
FPUS83 KFGF 200231
OPUFGF
PRAIRIE TO PINES WEATHER ROUNDUP
NATIONAL WEATHER SERVICE EASTERN NORTH DAKOTA/GRAND FORKS ND
900 PM CDT TUE SEP 19 2017

 **SATELLITE DATA USED TO AUGMENT SKY COVER AT AUTOMATED STATIONS**
 *****  WEATHER ACROSS EASTERN NORTH DAKOTA  *****

CITY           SKY/WX    TMP DP  RH WIND       PRES   REMARKS
GRAND FORKS    LGT RAIN  66  65  96 E25G35    29.42R
GRAND FORKS AF PTCLDY    67  64  92 SE18G37   29.40R
GRAND CITY NWS NOT AVBL
BUXTON           N/A     65  64  98 N14         N/A
DEVILS LAKE    RAIN      61  57  88 W14       29.46R
FARGO          MOCLDY    73  67  81 S17G35    29.40F
WAHPETON ARPT  FAIR      73  63  68 SE20G30   29.44S
$$

 *****  WEATHER ACROSS CENTRAL AND WESTERN NORTH DAKOTA  *****

CITY           SKY/WX    TMP DP  RH WIND       PRES   REMARKS
JAMESTOWN      LGT RAIN  63  61  93 SE5       29.45R
BISMARCK       LGT RAIN  58  34  40 W13G24    29.55R
MINOT          CLOUDY    58  53  84 W12       29.48S
MINOT AFB      CLOUDY    57  53  87 W12       29.46S
GARRISON         N/A     54  54 100 W12       29.53S
WILLISTON      LGT RAIN  55  43  63 W12       29.57R
DICKINSON      CLOUDY    49  47  93 W12       29.61R
HETTINGER      CLOUDY    49  45  86 W12       29.67R
$$

 *****  OTHER OBSERVATIONS NORTHEAST NORTH DAKOTA  *****

CITY           SKY/WX    TMP DP  RH WIND       PRES   REMARKS
WALHALLA       FAIR     N/A N/A N/A SE14G20   29.39S
LANGDON        CLOUDY    66  66 100 S12G21    29.44R
CAVALIER       MOCLDY    66  63  88 SE9       29.40F
GRAFTON        FAIR      68  64  88 SE26G40   29.40F
CANDO          CLOUDY    59  59 100 W7        29.48R
FORT TOTTEN      N/A     65  64  98 SW5       29.95S
ROLLA          CLOUDY    59  59 100 CALM      29.46F
RUGBY          MOCLDY    57  55  94 CALM      29.47R
 ***** THE ABOVE OBSERVATIONS ARE NON NWS ARE NOT QUALITY
        CONTROLLED AND MAY MIS-REPORT RAIN FOR SNOW...
$$

 *****  OTHER OBSERVATIONS SOUTHEAST NORTH DAKOTA *****

CITY           SKY/WX    TMP DP  RH WIND       PRES   REMARKS
COOPERSTOWN    DRIZZLE   61  61 100 S10       29.47R
VALLEY CITY    RAIN      63  63 100 CALM      29.48R
OAKES          NOT AVBL
GWINNER        FOG       66  64  94 SW29G43   29.44R VSB 1/4
SHEYENNE NWR     N/A     74  69  82 S18       29.95S
BUFFALO          N/A     62  59  92 W10         N/A
WYNDMERE       NOT AVBL
 ***** THE ABOVE OBSERVATIONS ARE NON NWS ARE NOT QUALITY
       CONTROLLED AND MAY MIS-REPORT RAIN FOR SNOW...
$$

  *****  WEATHER ACROSS NORTHERN MINNESOTA  *****

CITY           SKY/WX    TMP DP  RH WIND       PRES   REMARKS
FLAG ISLAND    FAIR      66  59  77 SE7       29.62R
WARROAD        LGT RAIN  64  61  88 E14       29.60R
ROSEAU         TSTM      64  61  88 E3        29.58S
HALLOCK        DRIZZLE   66  64  94 SE40G51   29.37F
THF RVR FALLS  TSTM      66  63  90 E20       29.52R
HALSTAD          N/A     63  63 100 CALM        N/A
FOSSTON        TSTM      59  57  94 SW25      29.57R VSB 1/2
BAUDETTE       MOCLDY    66  60  81 SE13G23   29.62F
WASKISH        FAIR      66  61  82 SE13G22   29.60S
CROOKSTON      RAIN      61  61 100 SE16G31   29.46F
$$
  *****  WEATHER ACROSS CENTRAL AND WEST MINNESOTA  *****

CITY           SKY/WX    TMP DP  RH WIND       PRES   REMARKS
BEMIDJI        CLOUDY    67  61  79 SE20G32   29.57R
PARK RAPIDS    MOCLDY    70  62  76 SE25G33   29.55F
WADENA         CLOUDY    70  61  73 SE22G29   29.56R
DETROIT LAKES  MOCLDY    70  63  78 SE17G29   29.52R
MOORHEAD       FAIR      73  64  73 SE24G33   29.40F
FERGUS FALLS   FAIR      73  64  73 SE23G31   29.47F
ELBOW LAKE     FAIR      72  65  80 E24G35    29.49S
MORRIS MN      FAIR      73  66  78 SE25G31   29.47F
STAPLES        MOCLDY    70  61  73 SE12G22   29.58S
WHEATON        MOCLDY    73  64  73 SE22G28   29.45S
$$
  *****  WEATHER ELSEWHERE ACROSS MINNESOTA  *****

CITY           SKY/WX    TMP DP  RH WIND       PRES   REMARKS
DULUTH         FAIR      60  57  89 E14       29.77F
INTRNTL FALLS  FAIR      65  58  78 SE14G26   29.68F
ELY            FAIR      59  52  77 E12       29.78F
CLOQUET        MOCLDY    61  55  82 E10       29.73F
BRAINERD       FAIR      69  61  75 SE13G23   29.62F
HIBBING        FAIR      58  54  86 SE10      29.73F
ALEXANDRIA     CLOUDY    71  64  78 SE18G28   29.57S
SAINT CLOUD    FAIR      72  63  73 SE16G25   29.62F
MINNEAPOLIS    MOCLDY    74  63  68 SE14G22   29.70R
$$

  *****  WEATHER ACROSS SOUTH DAKOTA  *****

CITY           SKY/WX    TMP DP  RH WIND       PRES   REMARKS
SIOUX FALLS    FAIR      78  68  71 SE21G30   29.50F
BROOKINGS      FAIR      75  68  78 SE20G31   29.48F
WATERTOWN      FAIR      72  69  90 SE20G29   29.41F
HURON          HVY RAIN  62  62 100 W33G54    29.52R VSB 1/2
SISSETON         N/A     75  68  78 SE17      29.42F
ABERDEEN       CLOUDY    73  61  65 NW18G29   29.44R
MITCHELL       FAIR      79  69  71 SE13      29.43F
PIERRE         FAIR      68  47  46 NW30G40   29.58R
MOBRIDGE       FAIR      61  53  75 NW22G31   29.55R
RAPID CITY     PTCLDY    48  43  81 N16G25    29.73R
$$

  *****  SOME WEATHER IN NEARBY STATES *****

CITY           SKY/WX    TMP DP  RH WIND       PRES   REMARKS
GLASGOW MT     FAIR      51  35  54 W7        29.58R
GREAT FALLS MT FAIR      46  32  58 SW16      29.64F
CHEYENNE WY    FAIR      47  28  47 NW29G47   29.81R
SCOTTSBLUFF NE FAIR      54  33  45 W14       29.79S
OMAHA NE       MOCLDY    82  68  62 SE22G31   29.59R
DES MOINES IA  FAIR      78  67  68 SE17      29.71R
DAVENPORT IA   FAIR      71  64  78 SE9       29.88R
CHICAGO IL     FAIR      68  62  81 E5        29.92S
EAU CLAIRE WI  FAIR      70  59  68 SE10      29.79S
LA CROSSE WI   FAIR      73  63  70 SE7       29.80R
$$

  *****  SOME NATIONAL WEATHER *****

CITY           SKY/WX    TMP DP  RH WIND       PRES   REMARKS
LA GUARDIA NY  CLOUDY    72  66  81 N15G24    29.87F
RALEIGH NC     FAIR      68  65  90 CALM      29.96S
ATLANTA GA     CLOUDY    80  66  62 CALM      29.98F
NEW ORLEANS LA FAIR      81  74  79 S6        29.94R
OKLAHOMA CITY  FAIR      82  70  66 S14       29.75R
ALBUQUERQUE NM FAIR      79  19  10 W15       29.92R
SALT LAKE CITY FAIR      59  34  39 N5        29.90S
LOS ANGELES CA FAIR      68  61  78 W13       29.86S
BOISE ID       FAIR      54  38  54 NE3       29.88R
SEATTLE WA     CLOUDY    53  50  89 N7        29.76R
$$

*** WEATHER ACROSS MANITOBA...SASKATCHEWAN AND ONTARIO ***
                ***ONTARIO***

CITY           SKY/WX    TMP DP  RH WIND       PRES   REMARKS
GERALDTON      CLEAR     50  48  93 E6        30.01S
THUNDER BAY    MOCLDY    57  54  88 E12       29.92F
SIOUX LOOKOUT  CLOUDY    61  54  77 SE10G17   29.81S
TORONTO        MOCLDY    72  64  78 E6        30.00F
BIG TROUT LK   CLEAR     50  39  66 E7        29.97F
PICKLE LAKE    CLOUDY    57  52  82 E12       29.91F
DRYDEN         MOCLDY    61  55  82 E12G17    29.75F
KENORA         CLOUDY    64  59  82 SE17G23   29.67F
$$
                *** MANITOBA***

CITY           SKY/WX    TMP DP  RH WIND       PRES   REMARKS
BRANDON        LGT RAIN  59  59 100 SW8       29.42R
DAUPHIN        LGT RAIN  61  59  94 SE13G18   29.41R
ISLAND LAKE    NOT AVBL
PILOT MOUND      N/A     59  57  94 SW10        N/A
THE PAS        CLOUDY    52  50  93 E21G31    29.45F
THOMPSON       CLOUDY    52  37  58 E9G21     29.80F
WINNIPEG       MOCLDY    66  61  82 SE20G29   29.43F
LYNN LAKE      CLOUDY    52  39  62 E13G20    29.77F
CHURCHILL      PTCLDY    39  37  93 E9        30.07S
GILLAM         PTCLDY    48  37  66 E6        29.95R
$$
                ***SASKATCHEWAN***

CITY           SKY/WX    TMP DP  RH WIND       PRES   REMARKS
ESTEVAN        CLOUDY    55  48  76 W9        29.50R
KINDERSLEY     PTCLDY    45  39  81 NE2       29.50S
LLOYDMINSTER   MOCLDY    41  37  87 SW5       29.46R
PRINCE ALBERT  LGT RAIN  54  52  94 E5        29.34F FOG
REGINA         MOCLDY    52  43  71 W14G20    29.51R
YORKTON        MOCLDY    54  50  87 W13       29.41S



USA.gov is the U.S. government's official web portal to all federal, state and local government web resources and services.